Location: Newark
(46.2061°N, 4.0794°E)
Time: 21:13:32
(UTC+00:00)

Envisat - Visible Passes

Search period start: 06 December 2019 00:00
Search period end: 16 December 2019 00:00
Orbit: 764 x 766 km, 98.1° (Epoch: 06 December)

Date Brightness Start Highest point End Pass type
(mag) Time Alt. Az. Time Alt. Az. Time Alt. Az.
06 Dec 5.7 05:30:55 10° NE 05:34:42 21° E 05:38:27 10° SE visible
06 Dec 3.5 16:47:42 10° SE 16:52:17 35° ENE 16:56:53 10° N visible
06 Dec 4.7 18:26:46 10° SSW 18:31:19 32° W 18:35:53 10° NNW visible
07 Dec 3.4 06:32:14 10° NNE 06:37:20 73° ESE 06:42:25 10° S visible
07 Dec 3.3 17:49:20 10° S 17:54:22 69° WSW 17:59:28 10° NNW visible
08 Dec 4.8 05:55:47 10° NNE 06:00:25 34° E 06:05:01 10° SSE visible
08 Dec 3.0 17:12:40 10° SSE 17:17:38 58° ENE 17:22:38 10° N visible
08 Dec 5.5 18:53:25 10° SW 18:57:03 19° W 19:00:41 10° NW visible
09 Dec 6.0 05:20:06 10° NE 05:23:18 17° E 05:26:29 10° SE visible
09 Dec 3.8 16:36:46 10° ESE 16:41:05 29° ENE 16:45:26 10° N visible
09 Dec 4.3 18:15:12 10° SSW 18:19:58 40° W 18:24:45 10° NNW visible
10 Dec 3.8 06:21:00 10° NNE 06:26:03 58° E 06:31:02 10° S visible
10 Dec 3.0 17:38:00 10° SSE 17:43:05 85° WSW 17:48:12 10° NNW visible
10 Dec 6.2 19:21:23 10° WSW 19:22:52 11° W 19:24:22 10° WNW visible
11 Dec 5.2 05:44:43 10° NE 05:49:03 28° E 05:53:22 10° SSE visible
11 Dec 3.2 17:01:34 10° SE 17:06:24 47° ENE 17:11:16 10° N visible
11 Dec 5.2 18:41:34 10° SSW 18:45:39 24° W 18:49:45 10° NW visible
12 Dec 6.1 05:09:30 10° ENE 05:11:52 13° E 05:14:14 10° ESE visible
12 Dec 4.0 16:25:55 10° ESE 16:29:55 24° ENE 16:33:55 10° N visible
12 Dec 3.9 18:03:42 10° S 18:08:38 50° W 18:13:35 10° NNW visible
13 Dec 4.2 06:09:48 10° NNE 06:14:43 46° E 06:19:35 10° S visible
13 Dec 2.9 17:26:44 10° SSE 17:31:48 78° ENE 17:36:55 10° N visible
13 Dec 5.9 19:08:45 10° WSW 19:11:26 14° W 19:14:08 10° NW visible
14 Dec 5.6 05:33:43 10° NE 05:37:41 22° E 05:41:37 10° SE visible
14 Dec 3.5 16:50:32 10° SE 16:55:11 38° ENE 16:59:52 10° N visible
14 Dec 4.9 18:29:51 10° SSW 18:34:16 30° W 18:38:44 10° NNW visible
15 Dec 6.4 04:59:55 10° E 05:00:25 10° E 05:00:56 10° E visible
15 Dec 3.2 06:35:10 10° NNE 06:40:17 79° ESE 06:45:22 10° S visible
15 Dec 3.5 17:52:17 10° S 17:57:19 63° W 18:02:23 10° NNW visible
